Location: Palo Alto
(37.4420°N, 122.1420°W)
Time: 07:54:53
(UTC-07:00)

X-37B - Pass Details

Date: 10 August 2020
Orbit: 386 x 387 km, 45.0° (Epoch: 18 September)

Event Time Altitude Azimuth Distance (km) Brightness Sun altitude
Rises 22:44:13 0° 294° (WNW) 2,264 5.5 -26.8°
Reaches altitude 10° 22:46:39 10° 312° (NW) 1,410 4.4 -27.1°
Enters shadow 22:48:07 18° 337° (NNW) 1,046 3.5 -27.3°
